Content
SEND FEEDBACK

Daily
Averages
Monthly
Summary
United Kingdom

SHOEBURYNESS, ENGLAND


Home > Europe > United Kingdom > England
Elevation: 7 feet     Latitude: 51 32N     Longitude: 000 49E

WEATHER
 
SELECT A DAY
Number of Records: 216,682;   Date Range: 7/1/96 - 12/21/14
 
SHARE

PRINT THIS DATA

[ ← Previous Day ]
WEATHER ALMANAC - OCTOBER 1, 2013
[ Next Day → ]
[ °C ]   °F
Weather ElementAverageHighLow
Temperature57.7 °F60.8 °F (11:20 am)48.2 °F (3:50 am)
Dewpoint51 °F53.6 °F (7:50 am)46.4 °F (3:50 am)
Humidity78.9 %94 % (4:50 am)68 % (11:50 am)
Barometer29.82 in29.86 in (8:50 pm)29.77 in (4:50 am)
Wind Speed10.7 mph17.3 mph (11:50 am)
Weather ElementAverage
Visibility5.6 mi
Wind DirectionESE (111.7 °)

Weather ElementTotal
Precipitation---
Heating Degree Days10.5 (Base 65)
Growing Degree Days4.5 (Base 50)
Averaged from 41 records on October 1, 2013
WEATHER CONDITIONS BREAKOUT
WIND DIRECTION BREAKOUT
WEATHER BY HOUR - OCTOBER 1, 2013
[ °C ]   °F
Local TimeTemperatureDewpointHumidityBarometerVisibilityWind DirectionWind SpeedGust SpeedPrecipitationEventsConditions
1:50 AM53.6 °F48.2 °F82 %29.80 inEast (100°)3.5 mphClear
2:50 AM53.6 °F48.2 °F82 %29.80 inEast (90°)2.3 mphClear
3:50 AM48.2 °F46.4 °F93 %29.80 inNW (310°)2.3 mphClear
4:50 AM51.8 °F50.0 °F94 %29.77 in5.6 miNW (310°)2.3 mph
5:20 AM50.0 °F48.2 °F94 %29.77 in5.6 miNW (310°)2.3 mph
5:50 AM50.0 °F48.2 °F94 %29.80 in5.0 miCalm
6:20 AM50.0 °F48.2 °F94 %29.77 in5.0 miNE (50°)5.8 mph
6:50 AM50.0 °F48.2 °F94 %29.80 in4.3 miENE (70°)4.6 mphFogFog
7:20 AM51.8 °F50.0 °F94 %29.80 in3.1 miEast (80°)5.8 mphHaze
7:50 AM55.4 °F53.6 °F94 %29.80 in4.3 miEast (90°)9.2 mph
8:20 AM55.4 °F51.8 °F88 %29.80 in5.0 miEast (100°)12.7 mphScattered Clouds
8:50 AM57.2 °F53.6 °F88 %29.80 in5.0 miESE (110°)13.8 mphMostly Cloudy
9:20 AM57.2 °F53.6 °F88 %29.83 in5.0 miESE (110°)15.0 mphMostly Cloudy
9:50 AM57.2 °F51.8 °F82 %29.83 in5.6 miESE (110°)12.7 mphScattered Clouds
10:20 AM59.0 °F51.8 °F77 %29.83 in5.6 miESE (110°)13.8 mphPartly Cloudy
10:50 AM59.0 °F50.0 °F72 %29.83 in5.6 miESE (110°)16.1 mphPartly Cloudy
11:20 AM60.8 °F51.8 °F72 %29.83 in5.6 miESE (110°)15.0 mphPartly Cloudy
11:50 AM60.8 °F50.0 °F68 %29.83 in5.6 miEast (100°)17.3 mphPartly Cloudy
12:20 PM60.8 °F51.8 °F72 %29.83 in6.2 miESE (110°)15.0 mphMostly Cloudy
12:50 PM60.8 °F50.0 °F68 %29.83 in6.2 miEast (100°)12.7 mphMostly Cloudy
1:20 PM60.8 °F50.0 °F68 %29.83 in6.2 miEast (100°)15.0 mphMostly Cloudy
1:50 PM60.8 °F50.0 °F68 %29.83 in6.2 miEast (100°)15.0 mphMostly Cloudy
2:20 PM60.8 °F50.0 °F68 %29.83 in6.2 miEast (90°)16.1 mphMostly Cloudy
2:50 PM60.8 °F50.0 °F68 %29.83 in6.2 miEast (100°)13.8 mphMostly Cloudy
3:20 PM60.8 °F51.8 °F72 %29.83 in5.6 miEast (100°)15.0 mphMostly Cloudy
3:50 PM60.8 °F51.8 °F72 %29.83 in5.6 miEast (90°)16.1 mphMostly Cloudy
4:20 PM59.0 °F51.8 °F77 %29.83 in5.6 miEast (90°)15.0 mphMostly Cloudy
4:50 PM59.0 °F51.8 °F77 %29.83 in5.6 miEast (100°)12.7 mphMostly Cloudy
5:20 PM60.8 °F51.8 °F72 %29.83 in5.6 miEast (90°)13.8 mphMostly Cloudy
5:50 PM60.8 °F51.8 °F72 %29.83 in5.6 miEast (100°)12.7 mphScattered Clouds
6:20 PM60.8 °F53.6 °F77 %29.83 in5.6 miEast (90°)13.8 mphScattered Clouds
6:50 PM59.0 °F51.8 °F77 %29.83 in5.6 miEast (90°)13.8 mphPartly Cloudy
7:20 PM59.0 °F51.8 °F77 %29.83 in6.2 miEast (90°)11.5 mphPartly Cloudy
7:50 PM59.0 °F51.8 °F77 %29.83 in6.2 miEast (100°)9.2 mphPartly Cloudy
8:20 PM59.0 °F51.8 °F77 %29.83 in6.2 miESE (110°)6.9 mphScattered Clouds
8:50 PM60.8 °F53.6 °F77 %29.86 in6.2 miESE (110°)8.1 mphMostly Cloudy
9:20 PM60.8 °F53.6 °F77 %29.86 in6.2 miESE (110°)8.1 mphMostly Cloudy
9:50 PM60.8 °F51.8 °F72 %29.83 in6.2 miEast (100°)11.5 mphMostly Cloudy
10:20 PM60.8 °F51.8 °F72 %29.86 in6.2 miESE (110°)9.2 mphOvercast
10:50 PM59.0 °F51.8 °F77 %29.86 in6.2 miESE (120°)8.1 mphOvercast
11:50 PM59.0 °F50.0 °F72 %29.86 in6.2 miESE (110°)9.2 mphMostly Cloudy
Hourly data recorded from EGMC, located miles away from Shoeburyness, England







STORIES FROM OUR PARTNERS